Year,Month,Day,Hour,Minute,Value (Times are PST for temperature in C)
2016,05,20,00,00,10.30
2016,05,20,00,01,10.20
2016,05,20,00,02,10.20
2016,05,20,00,03,10.20
2016,05,20,00,04,10.20
2016,05,20,00,05,10.20
2016,05,20,00,06,10.20
2016,05,20,00,07,10.20
2016,05,20,00,08,10.10
2016,05,20,00,09,10.10
2016,05,20,00,10,10.10
2016,05,20,00,11,10.10
2016,05,20,00,12,10.10
2016,05,20,00,13,10.10
2016,05,20,00,14,10.10
2016,05,20,00,15,10.10
2016,05,20,00,16,10.10
2016,05,20,00,17,10.00
2016,05,20,00,18,10.00
2016,05,20,00,19,10.00
2016,05,20,00,20,10.00
2016,05,20,00,21,10.00
2016,05,20,00,22,10.00
2016,05,20,00,23,10.00
2016,05,20,00,24,10.00
2016,05,20,00,25,10.00
2016,05,20,00,26,9.90
2016,05,20,00,27,9.90
2016,05,20,00,28,9.90
2016,05,20,00,29,9.90
2016,05,20,00,30,9.90
2016,05,20,00,31,9.90
2016,05,20,00,32,9.90
2016,05,20,00,33,10.00
2016,05,20,00,34,10.00
2016,05,20,00,35,10.00
2016,05,20,00,36,10.10
2016,05,20,00,37,10.10
2016,05,20,00,38,10.10
2016,05,20,00,39,10.10
2016,05,20,00,40,10.10
2016,05,20,00,41,10.10
2016,05,20,00,42,10.10
2016,05,20,00,43,10.10
2016,05,20,00,44,10.10
2016,05,20,00,45,10.10
2016,05,20,00,46,10.10
2016,05,20,00,47,10.10
2016,05,20,00,48,10.10
2016,05,20,00,49,10.10
2016,05,20,00,50,10.10
2016,05,20,00,51,10.20
2016,05,20,00,52,10.20
2016,05,20,00,53,10.20
2016,05,20,00,54,10.20
2016,05,20,00,55,10.20
2016,05,20,00,56,10.20
2016,05,20,00,57,10.20
2016,05,20,00,58,10.20
2016,05,20,00,59,10.30
2016,05,20,01,00,10.30
2016,05,20,01,01,10.30
2016,05,20,01,02,10.30
2016,05,20,01,03,10.30
2016,05,20,01,04,10.30
2016,05,20,01,05,10.30
2016,05,20,01,06,10.40
2016,05,20,01,07,10.40
2016,05,20,01,08,10.40
2016,05,20,01,09,10.40
2016,05,20,01,10,10.40
2016,05,20,01,11,10.40
2016,05,20,01,12,10.40
2016,05,20,01,13,10.40
2016,05,20,01,14,10.40
2016,05,20,01,15,10.40
2016,05,20,01,16,10.40
2016,05,20,01,17,10.40
2016,05,20,01,18,10.40
2016,05,20,01,19,10.40
2016,05,20,01,20,10.40
2016,05,20,01,21,10.40
2016,05,20,01,22,10.40
2016,05,20,01,23,10.40
2016,05,20,01,24,10.40
2016,05,20,01,25,10.40
2016,05,20,01,26,10.40
2016,05,20,01,27,10.40
2016,05,20,01,28,10.40
2016,05,20,01,29,10.40
2016,05,20,01,30,10.40
2016,05,20,01,31,10.40
2016,05,20,01,32,10.40
2016,05,20,01,33,10.40
2016,05,20,01,34,10.40
2016,05,20,01,35,10.50
2016,05,20,01,36,10.50
2016,05,20,01,37,10.60
2016,05,20,01,38,10.60
2016,05,20,01,39,10.70
2016,05,20,01,40,10.70
2016,05,20,01,41,10.70
2016,05,20,01,42,10.80
2016,05,20,01,43,10.80
2016,05,20,01,44,10.80
2016,05,20,01,45,10.80
2016,05,20,01,46,10.80
2016,05,20,01,47,10.70
2016,05,20,01,48,10.70
2016,05,20,01,49,10.70
2016,05,20,01,50,10.70
2016,05,20,01,51,10.70
2016,05,20,01,52,10.70
2016,05,20,01,53,10.70
2016,05,20,01,54,10.70
2016,05,20,01,55,10.70
2016,05,20,01,56,10.70
2016,05,20,01,57,10.70
2016,05,20,01,58,10.70
2016,05,20,01,59,10.70
2016,05,20,02,00,10.70
2016,05,20,02,01,10.70
2016,05,20,02,02,10.70
2016,05,20,02,03,10.70
2016,05,20,02,04,10.70
2016,05,20,02,05,10.80
2016,05,20,02,06,10.80
2016,05,20,02,07,10.80
2016,05,20,02,08,10.80
2016,05,20,02,09,10.80
2016,05,20,02,10,10.80
2016,05,20,02,11,10.80
2016,05,20,02,12,10.80
2016,05,20,02,13,10.80
2016,05,20,02,14,10.80
2016,05,20,02,15,10.70
2016,05,20,02,16,10.70
2016,05,20,02,17,10.70
2016,05,20,02,18,10.70
2016,05,20,02,19,10.60
2016,05,20,02,20,10.60
2016,05,20,02,21,10.60
2016,05,20,02,22,10.50
2016,05,20,02,23,10.50
2016,05,20,02,24,10.50
2016,05,20,02,25,10.50
2016,05,20,02,26,10.40
2016,05,20,02,27,10.40
2016,05,20,02,28,10.40
2016,05,20,02,29,10.40
2016,05,20,02,30,10.40
2016,05,20,02,31,10.40
2016,05,20,02,32,10.40
2016,05,20,02,33,10.40
2016,05,20,02,34,10.30
2016,05,20,02,35,10.30
2016,05,20,02,36,10.30
2016,05,20,02,37,10.30
2016,05,20,02,38,10.30
2016,05,20,02,39,10.30
2016,05,20,02,40,10.20
2016,05,20,02,41,10.20
2016,05,20,02,42,10.10
2016,05,20,02,43,10.10
2016,05,20,02,44,10.10
2016,05,20,02,45,10.00
2016,05,20,02,46,10.00
2016,05,20,02,47,10.00
2016,05,20,02,48,9.90
2016,05,20,02,49,9.90
2016,05,20,02,50,9.90
2016,05,20,02,51,9.90
2016,05,20,02,52,9.90
2016,05,20,02,53,9.90
2016,05,20,02,54,9.90
2016,05,20,02,55,9.90
2016,05,20,02,56,9.90
2016,05,20,02,57,9.90
2016,05,20,02,58,9.80
2016,05,20,02,59,9.80
2016,05,20,03,00,9.80
2016,05,20,03,01,9.80
2016,05,20,03,02,9.80
2016,05,20,03,03,9.80
2016,05,20,03,04,9.80
2016,05,20,03,05,9.80
2016,05,20,03,06,9.80
2016,05,20,03,07,9.80
2016,05,20,03,08,9.80
2016,05,20,03,09,9.80
2016,05,20,03,10,9.80
2016,05,20,03,11,9.80
2016,05,20,03,12,9.80
2016,05,20,03,13,9.80
2016,05,20,03,14,9.80
2016,05,20,03,15,9.80
2016,05,20,03,16,9.80
2016,05,20,03,17,9.80
2016,05,20,03,18,9.80
2016,05,20,03,19,9.80
2016,05,20,03,20,9.80
2016,05,20,03,21,9.80
2016,05,20,03,22,9.80
2016,05,20,03,23,9.80
2016,05,20,03,24,9.70
2016,05,20,03,25,9.70
2016,05,20,03,26,9.70
2016,05,20,03,27,9.70
2016,05,20,03,28,9.70
2016,05,20,03,29,9.70
2016,05,20,03,30,9.70
2016,05,20,03,31,9.70
2016,05,20,03,32,9.70
2016,05,20,03,33,9.70
2016,05,20,03,34,9.70
2016,05,20,03,35,9.70
2016,05,20,03,36,9.70
2016,05,20,03,37,9.70
2016,05,20,03,38,9.70
2016,05,20,03,39,9.70
2016,05,20,03,40,9.70
2016,05,20,03,41,9.70
2016,05,20,03,42,9.70
2016,05,20,03,43,9.70
2016,05,20,03,44,9.70
2016,05,20,03,45,9.70
2016,05,20,03,46,9.70
2016,05,20,03,47,9.60
2016,05,20,03,48,9.60
2016,05,20,03,49,9.60
2016,05,20,03,50,9.60
2016,05,20,03,51,9.60
2016,05,20,03,52,9.60
2016,05,20,03,53,9.60
2016,05,20,03,54,9.60
2016,05,20,03,55,9.50
2016,05,20,03,56,9.50
2016,05,20,03,57,9.50
2016,05,20,03,58,9.50
2016,05,20,03,59,9.50
2016,05,20,04,00,9.40
2016,05,20,04,01,9.40
2016,05,20,04,02,9.40
2016,05,20,04,03,9.40
2016,05,20,04,04,9.40
2016,05,20,04,05,9.40
2016,05,20,04,06,9.40
2016,05,20,04,07,9.40
2016,05,20,04,08,9.40
2016,05,20,04,09,9.40
2016,05,20,04,10,9.30
2016,05,20,04,11,9.30
2016,05,20,04,12,9.30
2016,05,20,04,13,9.30
2016,05,20,04,14,9.30
2016,05,20,04,15,9.30
2016,05,20,04,16,9.30
2016,05,20,04,17,9.20
2016,05,20,04,18,9.20
2016,05,20,04,19,9.20
2016,05,20,04,20,9.20
2016,05,20,04,21,9.20
2016,05,20,04,22,9.20
2016,05,20,04,23,9.20
2016,05,20,04,24,9.10
2016,05,20,04,25,9.10
2016,05,20,04,26,9.10
2016,05,20,04,27,9.10
2016,05,20,04,28,9.10
2016,05,20,04,29,9.10
2016,05,20,04,30,9.00
2016,05,20,04,31,9.00
2016,05,20,04,32,9.00
2016,05,20,04,33,8.90
2016,05,20,04,34,8.90
2016,05,20,04,35,8.90
2016,05,20,04,36,8.80
2016,05,20,04,37,8.80
2016,05,20,04,38,8.80
2016,05,20,04,39,8.80
2016,05,20,04,40,8.70
2016,05,20,04,41,8.70
2016,05,20,04,42,8.70
2016,05,20,04,43,8.70
2016,05,20,04,44,8.70
2016,05,20,04,45,8.60
2016,05,20,04,46,8.60
2016,05,20,04,47,8.60
2016,05,20,04,48,8.60
2016,05,20,04,49,8.50
2016,05,20,04,50,8.50
2016,05,20,04,51,8.50
2016,05,20,04,52,8.40
2016,05,20,04,53,8.40
2016,05,20,04,54,8.40
2016,05,20,04,55,8.40
2016,05,20,04,56,8.30
2016,05,20,04,57,8.30
2016,05,20,04,58,8.30
2016,05,20,04,59,8.20
2016,05,20,05,00,8.20
2016,05,20,05,01,8.20
2016,05,20,05,02,8.20
2016,05,20,05,03,8.20
2016,05,20,05,04,8.20
2016,05,20,05,05,8.20
2016,05,20,05,06,8.10
2016,05,20,05,07,8.10
2016,05,20,05,08,8.10
2016,05,20,05,09,8.10
2016,05,20,05,10,8.10
2016,05,20,05,11,8.10
2016,05,20,05,12,8.10
2016,05,20,05,13,8.10
2016,05,20,05,14,8.00
2016,05,20,05,15,8.00
2016,05,20,05,16,8.00
2016,05,20,05,17,8.00
2016,05,20,05,18,7.90
2016,05,20,05,19,7.90
2016,05,20,05,20,7.90
2016,05,20,05,21,7.90
2016,05,20,05,22,7.90
2016,05,20,05,23,7.90
2016,05,20,05,24,7.90
2016,05,20,05,25,7.90
2016,05,20,05,26,7.90
2016,05,20,05,27,7.90
2016,05,20,05,28,7.80
2016,05,20,05,29,7.80
2016,05,20,05,30,7.80
2016,05,20,05,31,7.80
2016,05,20,05,32,7.80
2016,05,20,05,33,7.80
2016,05,20,05,34,7.80
2016,05,20,05,35,7.80
2016,05,20,05,36,7.80
2016,05,20,05,37,7.80
2016,05,20,05,38,7.80
2016,05,20,05,39,7.80
2016,05,20,05,40,7.80
2016,05,20,05,41,7.80
2016,05,20,05,42,7.90
2016,05,20,05,43,7.90
2016,05,20,05,44,7.90
2016,05,20,05,45,7.90
2016,05,20,05,46,7.90
2016,05,20,05,47,7.90
2016,05,20,05,48,7.90
2016,05,20,05,49,7.90
2016,05,20,05,50,8.00
2016,05,20,05,51,8.00
2016,05,20,05,52,8.00
2016,05,20,05,53,8.00
2016,05,20,05,54,8.00
2016,05,20,05,55,8.00
2016,05,20,05,56,8.00
2016,05,20,05,57,8.00
2016,05,20,05,58,8.00
2016,05,20,05,59,7.90
2016,05,20,06,00,7.90
2016,05,20,06,01,7.90
2016,05,20,06,02,7.90
2016,05,20,06,03,7.90
2016,05,20,06,04,7.90
2016,05,20,06,05,7.90
2016,05,20,06,06,7.90
2016,05,20,06,07,8.00
2016,05,20,06,08,8.00
2016,05,20,06,09,8.00
2016,05,20,06,10,8.00
2016,05,20,06,11,8.00
2016,05,20,06,12,8.10
2016,05,20,06,13,8.10
2016,05,20,06,14,8.10
2016,05,20,06,15,8.10
2016,05,20,06,16,8.20
2016,05,20,06,17,8.20
2016,05,20,06,18,8.20
2016,05,20,06,19,8.20
2016,05,20,06,20,8.30
2016,05,20,06,21,8.30
2016,05,20,06,22,8.30
2016,05,20,06,23,8.30
2016,05,20,06,24,8.40
2016,05,20,06,25,8.40
2016,05,20,06,26,8.50
2016,05,20,06,27,8.50
2016,05,20,06,28,8.60
2016,05,20,06,29,8.60
2016,05,20,06,30,8.60
2016,05,20,06,31,8.70
2016,05,20,06,32,8.70
2016,05,20,06,33,8.70
2016,05,20,06,34,8.80
2016,05,20,06,35,8.80
2016,05,20,06,36,8.80
2016,05,20,06,37,8.90
2016,05,20,06,38,8.90
2016,05,20,06,39,8.90
2016,05,20,06,40,9.00
2016,05,20,06,41,9.00
2016,05,20,06,42,9.10
2016,05,20,06,43,9.10
2016,05,20,06,44,9.20
2016,05,20,06,45,9.30
2016,05,20,06,46,9.30
2016,05,20,06,47,9.40
2016,05,20,06,48,9.40
2016,05,20,06,49,9.50
2016,05,20,06,50,9.50
2016,05,20,06,51,9.60
2016,05,20,06,52,9.60
2016,05,20,06,53,9.60
2016,05,20,06,54,9.70
2016,05,20,06,55,9.70
2016,05,20,06,56,9.80
2016,05,20,06,57,9.90
2016,05,20,06,58,9.90
2016,05,20,06,59,10.00
2016,05,20,07,00,10.10
2016,05,20,07,01,10.10
2016,05,20,07,02,10.20
2016,05,20,07,03,10.20
2016,05,20,07,04,10.20
2016,05,20,07,05,10.30
2016,05,20,07,06,10.30
2016,05,20,07,07,10.30
2016,05,20,07,08,10.30
2016,05,20,07,09,10.30
2016,05,20,07,10,10.40
2016,05,20,07,11,10.40
2016,05,20,07,12,10.50
2016,05,20,07,13,10.50
2016,05,20,07,14,10.60
2016,05,20,07,15,10.60
2016,05,20,07,16,10.60
2016,05,20,07,17,10.70
2016,05,20,07,18,10.70
2016,05,20,07,19,10.70
2016,05,20,07,20,10.70
2016,05,20,07,21,10.70
2016,05,20,07,22,10.70
2016,05,20,07,23,10.80
2016,05,20,07,24,10.80
2016,05,20,07,25,10.80
2016,05,20,07,26,10.90
2016,05,20,07,27,10.90
2016,05,20,07,28,10.90
2016,05,20,07,29,11.00
2016,05,20,07,30,11.00
2016,05,20,07,31,11.10
2016,05,20,07,32,11.10
2016,05,20,07,33,11.10
2016,05,20,07,34,11.10
2016,05,20,07,35,11.20
2016,05,20,07,36,11.20
2016,05,20,07,37,11.20
2016,05,20,07,38,11.30
2016,05,20,07,39,11.30
2016,05,20,07,40,11.30
2016,05,20,07,41,11.40
2016,05,20,07,42,11.40
2016,05,20,07,43,11.50
2016,05,20,07,44,11.50
2016,05,20,07,45,11.60
2016,05,20,07,46,11.60
2016,05,20,07,47,11.60
2016,05,20,07,48,11.60
2016,05,20,07,49,11.60
2016,05,20,07,50,11.60
2016,05,20,07,51,11.60
2016,05,20,07,52,11.70
2016,05,20,07,53,11.70
2016,05,20,07,54,11.70
2016,05,20,07,55,11.80
2016,05,20,07,56,11.80
2016,05,20,07,57,11.80
2016,05,20,07,58,11.80
2016,05,20,07,59,11.80
2016,05,20,08,00,11.90
2016,05,20,08,01,11.90
2016,05,20,08,02,12.00
2016,05,20,08,03,12.00
2016,05,20,08,04,12.10
2016,05,20,08,05,12.20
2016,05,20,08,06,12.30
2016,05,20,08,07,12.40
2016,05,20,08,08,12.40
2016,05,20,08,09,12.40
2016,05,20,08,10,12.40
2016,05,20,08,11,12.40
2016,05,20,08,12,12.40
2016,05,20,08,13,12.40
2016,05,20,08,14,12.40
2016,05,20,08,15,12.50
2016,05,20,08,16,12.60
2016,05,20,08,17,12.60
2016,05,20,08,18,12.70
2016,05,20,08,19,12.70
2016,05,20,08,20,12.80
2016,05,20,08,21,12.90
2016,05,20,08,22,12.90
2016,05,20,08,23,13.00
2016,05,20,08,24,13.10
2016,05,20,08,25,13.20
2016,05,20,08,26,13.20
2016,05,20,08,27,13.30
2016,05,20,08,28,13.30
2016,05,20,08,29,13.30
2016,05,20,08,30,13.30
2016,05,20,08,31,13.30
2016,05,20,08,32,13.30
2016,05,20,08,33,13.30
2016,05,20,08,34,13.20
2016,05,20,08,35,13.20
2016,05,20,08,36,13.20
2016,05,20,08,37,13.20
2016,05,20,08,38,13.20
2016,05,20,08,39,13.20
2016,05,20,08,40,13.30
2016,05,20,08,41,13.30
2016,05,20,08,42,13.40
2016,05,20,08,43,13.50
2016,05,20,08,44,13.50
2016,05,20,08,45,13.60
2016,05,20,08,46,13.60
2016,05,20,08,47,13.60
2016,05,20,08,48,13.60
2016,05,20,08,49,13.60
2016,05,20,08,50,13.60
2016,05,20,08,51,13.60
2016,05,20,08,52,13.60
2016,05,20,08,53,13.60
2016,05,20,08,54,13.60
2016,05,20,08,55,13.70
2016,05,20,08,56,13.70
2016,05,20,08,57,13.70
2016,05,20,08,58,13.80
2016,05,20,08,59,13.80
2016,05,20,09,00,13.90
2016,05,20,09,01,13.90
2016,05,20,09,02,13.90
2016,05,20,09,03,13.90
2016,05,20,09,04,13.90
2016,05,20,09,05,13.90
2016,05,20,09,06,13.90
2016,05,20,09,07,13.90
2016,05,20,09,08,13.90
2016,05,20,09,09,13.80
2016,05,20,09,10,13.80
2016,05,20,09,11,13.80
2016,05,20,09,12,13.80
2016,05,20,09,13,13.80
2016,05,20,09,14,13.80
2016,05,20,09,15,13.80
2016,05,20,09,16,13.80
2016,05,20,09,17,13.80
2016,05,20,09,18,13.80
2016,05,20,09,19,13.80
2016,05,20,09,20,13.80
2016,05,20,09,21,13.80
2016,05,20,09,22,13.80
2016,05,20,09,23,13.80
2016,05,20,09,24,13.80
2016,05,20,09,25,13.80
2016,05,20,09,26,13.80
2016,05,20,09,27,13.80
2016,05,20,09,28,13.90
2016,05,20,09,29,13.80
2016,05,20,09,30,13.80
2016,05,20,09,31,13.80
2016,05,20,09,32,13.70
2016,05,20,09,33,13.70
2016,05,20,09,34,13.70
2016,05,20,09,35,13.70
2016,05,20,09,36,13.70
2016,05,20,09,37,13.80
2016,05,20,09,38,13.80
2016,05,20,09,39,13.90
2016,05,20,09,40,14.00
2016,05,20,09,41,14.00
2016,05,20,09,42,14.10
2016,05,20,09,43,14.20
2016,05,20,09,44,14.20
2016,05,20,09,45,14.20
2016,05,20,09,46,14.20
2016,05,20,09,47,14.20
2016,05,20,09,48,14.30
2016,05,20,09,49,14.40
2016,05,20,09,50,14.50
2016,05,20,09,51,14.70
2016,05,20,09,52,14.80
2016,05,20,09,53,14.80
2016,05,20,09,54,14.80
2016,05,20,09,55,14.70
2016,05,20,09,56,14.60
2016,05,20,09,57,14.60
2016,05,20,09,58,14.60
2016,05,20,09,59,14.60
2016,05,20,10,00,14.60
2016,05,20,10,01,14.50
2016,05,20,10,02,14.50
2016,05,20,10,03,14.50
2016,05,20,10,04,14.60
2016,05,20,10,05,14.50
2016,05,20,10,06,14.40
2016,05,20,10,07,14.30
2016,05,20,10,08,14.30
2016,05,20,10,09,14.40
2016,05,20,10,10,14.40
2016,05,20,10,11,14.50
2016,05,20,10,12,14.50
2016,05,20,10,13,14.60
2016,05,20,10,14,14.50
2016,05,20,10,15,14.50
2016,05,20,10,16,14.40
2016,05,20,10,17,14.30
2016,05,20,10,18,14.30
2016,05,20,10,19,14.20
2016,05,20,10,20,14.20
2016,05,20,10,21,14.20
2016,05,20,10,22,14.20
2016,05,20,10,23,14.20
2016,05,20,10,24,14.20
2016,05,20,10,25,14.30
2016,05,20,10,26,14.30
2016,05,20,10,27,14.40
2016,05,20,10,28,14.40
2016,05,20,10,29,14.40
2016,05,20,10,30,14.50
2016,05,20,10,31,14.60
2016,05,20,10,32,14.50
2016,05,20,10,33,14.60
2016,05,20,10,34,14.60
2016,05,20,10,35,14.70
2016,05,20,10,36,14.70
2016,05,20,10,37,14.80
2016,05,20,10,38,15.00
2016,05,20,10,39,15.10
2016,05,20,10,40,15.20
2016,05,20,10,41,15.20
2016,05,20,10,42,15.20
2016,05,20,10,43,15.20
2016,05,20,10,44,15.10
2016,05,20,10,45,15.10
2016,05,20,10,46,15.00
2016,05,20,10,47,15.00
2016,05,20,10,48,15.10
2016,05,20,10,49,15.20
2016,05,20,10,50,15.20
2016,05,20,10,51,15.20
2016,05,20,10,52,15.20
2016,05,20,10,53,15.00
2016,05,20,10,54,14.90
2016,05,20,10,55,14.80
2016,05,20,10,56,14.80
2016,05,20,10,57,14.70
2016,05,20,10,58,14.70
2016,05,20,10,59,14.70
2016,05,20,11,00,14.70
2016,05,20,11,01,14.70
2016,05,20,11,02,14.70
2016,05,20,11,03,14.70
2016,05,20,11,04,14.70
2016,05,20,11,05,14.70
2016,05,20,11,06,14.80
2016,05,20,11,07,14.80
2016,05,20,11,08,14.80
2016,05,20,11,09,14.90
2016,05,20,11,10,14.90
2016,05,20,11,11,15.00
2016,05,20,11,12,15.10
2016,05,20,11,13,15.20
2016,05,20,11,14,15.20
2016,05,20,11,15,15.20
2016,05,20,11,16,15.20
2016,05,20,11,17,15.20
2016,05,20,11,18,15.20
2016,05,20,11,19,15.10
2016,05,20,11,20,15.10
2016,05,20,11,21,15.00
2016,05,20,11,22,15.00
2016,05,20,11,23,14.90
2016,05,20,11,24,14.90
2016,05,20,11,25,14.90
2016,05,20,11,26,14.90
2016,05,20,11,27,14.90
2016,05,20,11,28,14.90
2016,05,20,11,29,15.00
2016,05,20,11,30,15.00
2016,05,20,11,31,15.10
2016,05,20,11,32,15.10
2016,05,20,11,33,15.20
2016,05,20,11,34,15.20
2016,05,20,11,35,15.30
2016,05,20,11,36,15.40
2016,05,20,11,37,15.50
2016,05,20,11,38,15.60
2016,05,20,11,39,15.60
2016,05,20,11,40,15.60
2016,05,20,11,41,15.70
2016,05,20,11,42,15.70
2016,05,20,11,43,15.80
2016,05,20,11,44,15.90
2016,05,20,11,45,15.90
2016,05,20,11,46,15.90
2016,05,20,11,47,15.80
2016,05,20,11,48,15.90
2016,05,20,11,49,16.00
2016,05,20,11,50,16.10
2016,05,20,11,51,16.20
2016,05,20,11,52,16.30
2016,05,20,11,53,16.30
2016,05,20,11,54,16.20
2016,05,20,11,55,16.20
2016,05,20,11,56,16.30
2016,05,20,11,57,16.40
2016,05,20,11,58,16.40
2016,05,20,11,59,16.40
2016,05,20,12,00,16.30
2016,05,20,12,01,16.30
2016,05,20,12,02,16.30
2016,05,20,12,03,16.30
2016,05,20,12,04,16.30
2016,05,20,12,05,16.30
2016,05,20,12,06,16.30
2016,05,20,12,07,16.10
2016,05,20,12,08,15.90
2016,05,20,12,09,15.80
2016,05,20,12,10,15.70
2016,05,20,12,11,15.60
2016,05,20,12,12,15.50
2016,05,20,12,13,15.40
2016,05,20,12,14,15.40
2016,05,20,12,15,15.40
2016,05,20,12,16,15.40
2016,05,20,12,17,15.40
2016,05,20,12,18,15.50
2016,05,20,12,19,15.50
2016,05,20,12,20,15.60
2016,05,20,12,21,15.70
2016,05,20,12,22,15.80
2016,05,20,12,23,15.70
2016,05,20,12,24,15.70
2016,05,20,12,25,15.70
2016,05,20,12,26,15.70
2016,05,20,12,27,15.70
2016,05,20,12,28,15.80
2016,05,20,12,29,15.80
2016,05,20,12,30,15.90
2016,05,20,12,31,16.00
2016,05,20,12,32,16.10
2016,05,20,12,33,16.20
2016,05,20,12,34,16.20
2016,05,20,12,35,16.30
2016,05,20,12,36,16.40
2016,05,20,12,37,16.40
2016,05,20,12,38,16.40
2016,05,20,12,39,16.40
2016,05,20,12,40,16.30
2016,05,20,12,41,16.20
2016,05,20,12,42,16.20
2016,05,20,12,43,16.30
2016,05,20,12,44,16.20
2016,05,20,12,45,16.20
2016,05,20,12,46,16.20
2016,05,20,12,47,16.20
2016,05,20,12,48,16.20
2016,05,20,12,49,16.20
2016,05,20,12,50,16.20
2016,05,20,12,51,16.30
2016,05,20,12,52,16.30
2016,05,20,12,53,16.30
2016,05,20,12,54,16.30
2016,05,20,12,55,16.30
2016,05,20,12,56,16.30
2016,05,20,12,57,16.40
2016,05,20,12,58,16.50
2016,05,20,12,59,16.60
2016,05,20,13,00,16.70
2016,05,20,13,01,16.80
2016,05,20,13,02,16.80
2016,05,20,13,03,16.80
2016,05,20,13,04,16.70
2016,05,20,13,05,16.60
2016,05,20,13,06,16.60
2016,05,20,13,07,16.60
2016,05,20,13,08,16.50
2016,05,20,13,09,16.50
2016,05,20,13,10,16.50
2016,05,20,13,11,16.50
2016,05,20,13,12,16.50
2016,05,20,13,13,16.50
2016,05,20,13,14,16.50
2016,05,20,13,15,16.60
2016,05,20,13,16,16.60
2016,05,20,13,17,16.60
2016,05,20,13,18,16.60
2016,05,20,13,19,16.50
2016,05,20,13,20,16.50
2016,05,20,13,21,16.40
2016,05,20,13,22,16.40
2016,05,20,13,23,16.50
2016,05,20,13,24,16.50
2016,05,20,13,25,16.60
2016,05,20,13,26,16.60
2016,05,20,13,27,16.60
2016,05,20,13,28,16.60
2016,05,20,13,29,16.60
2016,05,20,13,30,16.60
2016,05,20,13,31,16.70
2016,05,20,13,32,16.70
2016,05,20,13,33,16.70
2016,05,20,13,34,16.70
2016,05,20,13,35,16.60
2016,05,20,13,36,16.60
2016,05,20,13,37,16.60
2016,05,20,13,38,16.50
2016,05,20,13,39,16.50
2016,05,20,13,40,16.50
2016,05,20,13,41,16.50
2016,05,20,13,42,16.60
2016,05,20,13,43,16.70
2016,05,20,13,44,16.70
2016,05,20,13,45,16.80
2016,05,20,13,46,16.80
2016,05,20,13,47,16.80
2016,05,20,13,48,16.90
2016,05,20,13,49,16.90
2016,05,20,13,50,17.00
2016,05,20,13,51,17.00
2016,05,20,13,52,17.10
2016,05,20,13,53,17.20
2016,05,20,13,54,17.30
2016,05,20,13,55,17.30
2016,05,20,13,56,17.40
2016,05,20,13,57,17.40
2016,05,20,13,58,17.40
2016,05,20,13,59,17.40
2016,05,20,14,00,17.40
2016,05,20,14,01,17.40
2016,05,20,14,02,17.40
2016,05,20,14,03,17.50
2016,05,20,14,04,17.50
2016,05,20,14,05,17.50
2016,05,20,14,06,17.50
2016,05,20,14,07,17.40
2016,05,20,14,08,17.40
2016,05,20,14,09,17.40
2016,05,20,14,10,17.50
2016,05,20,14,11,17.60
2016,05,20,14,12,17.70
2016,05,20,14,13,17.70
2016,05,20,14,14,17.70
2016,05,20,14,15,17.70
2016,05,20,14,16,17.60
2016,05,20,14,17,17.50
2016,05,20,14,18,17.40
2016,05,20,14,19,17.30
2016,05,20,14,20,17.20
2016,05,20,14,21,17.20
2016,05,20,14,22,17.20
2016,05,20,14,23,17.10
2016,05,20,14,24,17.10
2016,05,20,14,25,17.10
2016,05,20,14,26,17.20
2016,05,20,14,27,17.30
2016,05,20,14,28,17.40
2016,05,20,14,29,17.60
2016,05,20,14,30,17.70
2016,05,20,14,31,17.70
2016,05,20,14,32,17.80
2016,05,20,14,33,17.90
2016,05,20,14,34,18.00
2016,05,20,14,35,18.00
2016,05,20,14,36,18.00
2016,05,20,14,37,18.10
2016,05,20,14,38,18.10
2016,05,20,14,39,18.20
2016,05,20,14,40,18.10
2016,05,20,14,41,18.10
2016,05,20,14,42,18.10
2016,05,20,14,43,18.20
2016,05,20,14,44,18.20
2016,05,20,14,45,18.10
2016,05,20,14,46,18.00
2016,05,20,14,47,17.90
2016,05,20,14,48,17.90
2016,05,20,14,49,17.90
2016,05,20,14,50,17.90
2016,05,20,14,51,18.00
2016,05,20,14,52,18.10
2016,05,20,14,53,18.10
2016,05,20,14,54,18.20
2016,05,20,14,55,18.30
2016,05,20,14,56,18.40
2016,05,20,14,57,18.50
2016,05,20,14,58,18.50
2016,05,20,14,59,18.70
2016,05,20,15,00,18.70
2016,05,20,15,01,18.70
2016,05,20,15,02,18.70
2016,05,20,15,03,18.70
2016,05,20,15,04,18.70
2016,05,20,15,05,18.80
2016,05,20,15,06,18.70
2016,05,20,15,07,18.70
2016,05,20,15,08,18.60
2016,05,20,15,09,18.50
2016,05,20,15,10,18.50
2016,05,20,15,11,18.40
2016,05,20,15,12,18.50
2016,05,20,15,13,18.50
2016,05,20,15,14,18.50
2016,05,20,15,15,18.50
2016,05,20,15,16,18.50
2016,05,20,15,17,18.70
2016,05,20,15,18,18.80
2016,05,20,15,19,18.90
2016,05,20,15,20,19.00
2016,05,20,15,21,19.10
2016,05,20,15,22,19.10
2016,05,20,15,23,19.10
2016,05,20,15,24,19.10
2016,05,20,15,25,19.10
2016,05,20,15,26,19.10
2016,05,20,15,27,19.10
2016,05,20,15,28,19.10
2016,05,20,15,29,19.10
2016,05,20,15,30,19.10
2016,05,20,15,31,19.20
2016,05,20,15,32,19.20
2016,05,20,15,33,19.30
2016,05,20,15,34,19.30
2016,05,20,15,35,19.30
2016,05,20,15,36,19.30
2016,05,20,15,37,19.40
2016,05,20,15,38,19.40
2016,05,20,15,39,19.40
2016,05,20,15,40,19.40
2016,05,20,15,41,19.40
2016,05,20,15,42,19.40
2016,05,20,15,43,19.30
2016,05,20,15,44,19.30
2016,05,20,15,45,19.40
2016,05,20,15,46,19.40
2016,05,20,15,47,19.40
2016,05,20,15,48,19.40
2016,05,20,15,49,19.30
2016,05,20,15,50,19.30
2016,05,20,15,51,19.30
2016,05,20,15,52,19.30
2016,05,20,15,53,19.30
2016,05,20,15,54,19.40
2016,05,20,15,55,19.40
2016,05,20,15,56,19.40
2016,05,20,15,57,19.40
2016,05,20,15,58,19.40
2016,05,20,15,59,19.40
2016,05,20,16,00,19.40
2016,05,20,16,01,19.50
2016,05,20,16,02,19.50
2016,05,20,16,03,19.50
2016,05,20,16,04,19.50
2016,05,20,16,05,19.40
2016,05,20,16,06,19.40
2016,05,20,16,07,19.30
2016,05,20,16,08,19.40
2016,05,20,16,09,19.40
2016,05,20,16,10,19.40
2016,05,20,16,11,19.40
2016,05,20,16,12,19.50
2016,05,20,16,13,19.60
2016,05,20,16,14,19.70
2016,05,20,16,15,19.80
2016,05,20,16,16,19.90
2016,05,20,16,17,20.00
2016,05,20,16,18,20.10
2016,05,20,16,19,20.20
2016,05,20,16,20,20.30
2016,05,20,16,21,20.30
2016,05,20,16,22,20.30
2016,05,20,16,23,20.30
2016,05,20,16,24,20.40
2016,05,20,16,25,20.40
2016,05,20,16,26,20.40
2016,05,20,16,27,20.40
2016,05,20,16,28,20.50
2016,05,20,16,29,20.50
2016,05,20,16,30,20.50
2016,05,20,16,31,20.60
2016,05,20,16,32,20.60
2016,05,20,16,33,20.70
2016,05,20,16,34,20.60
2016,05,20,16,35,20.60
2016,05,20,16,36,20.60
2016,05,20,16,37,20.70
2016,05,20,16,38,20.60
2016,05,20,16,39,20.50
2016,05,20,16,40,20.50
2016,05,20,16,41,20.40
2016,05,20,16,42,20.30
2016,05,20,16,43,20.30
2016,05,20,16,44,20.20
2016,05,20,16,45,20.20
2016,05,20,16,46,20.20
2016,05,20,16,47,20.20
2016,05,20,16,48,20.10
2016,05,20,16,49,20.10
2016,05,20,16,50,20.00
2016,05,20,16,51,20.00
2016,05,20,16,52,19.90
2016,05,20,16,53,19.90
2016,05,20,16,54,19.90
2016,05,20,16,55,19.90
2016,05,20,16,56,20.00
2016,05,20,16,57,20.10
2016,05,20,16,58,20.10
2016,05,20,16,59,20.10
2016,05,20,17,00,20.10
2016,05,20,17,01,20.20
2016,05,20,17,02,20.20
2016,05,20,17,03,20.20
2016,05,20,17,04,20.30
2016,05,20,17,05,20.30
2016,05,20,17,06,20.40
2016,05,20,17,07,20.50
2016,05,20,17,08,20.50
2016,05,20,17,09,20.60
2016,05,20,17,10,20.50
2016,05,20,17,11,20.40
2016,05,20,17,12,20.40
2016,05,20,17,13,20.40
2016,05,20,17,14,20.50
2016,05,20,17,15,20.60
2016,05,20,17,16,20.70
2016,05,20,17,17,20.70
2016,05,20,17,18,20.70
2016,05,20,17,19,20.70
2016,05,20,17,20,20.70
2016,05,20,17,21,20.80
2016,05,20,17,22,20.80
2016,05,20,17,23,20.80
2016,05,20,17,24,20.80
2016,05,20,17,25,20.70
2016,05,20,17,26,20.70
2016,05,20,17,27,20.70
2016,05,20,17,28,20.80
2016,05,20,17,29,20.80
2016,05,20,17,30,20.90